User: anonymous   Login
Location: Unspecified
(0.0000°N, 0.0000°E)
Time: 22:35:42
(UTC+00:00)
Language:

FORTE - Orbit

View from above orbital plane
View from above orbital plane
View from above satellite
View from above satellite

Ground track
Ground track

The orbit data is extracted from the following two-line orbital elements,

1 24920U 97047A   18175.19085294 -.00000024  00000-0  14062-4 0  9998
2 24920  69.9545 105.7584 0025351 283.6321  76.1977 14.26295517 83154
Epoch (UTC): 24 June 2018 04:34:49
Eccentricity: 0.0025351
inclination: 69.9545°
perigee height: 786 km
apogee height: 822 km
right ascension of ascending node: 105.7584°
argument of perigee: 283.6321°
revolutions per day: 14.26295517
mean anomaly at epoch: 76.1977°
orbit number at epoch: 8315

The dashed part of the orbit path shows where the satellite is in the earth's shadow,  

DLR